This is the latest recevied weather packets stored in our database for station/object KD4EG. If no packets are shown the sender has not sent any weather packets the latest 10 day(s).
| Time | Temp. | Humidity | Pressure | Rain* | Wind** | Luminosity | Snow |
|---|---|---|---|---|---|---|---|
| 1787917143 | 19.44° C | 95% | 1019.6 hPa | 0 mm | - | 51 W/m² | - |
| 1787916837 | 19.44° C | 96% | 1019.4 hPa | 0 mm | - | 48 W/m² | - |
| 1787916537 | 19.44° C | 96% | 1019.4 hPa | 0 mm | - | 34 W/m² | - |
| 1787916232 | 19.44° C | 96% | 1019.5 hPa | 0 mm | - | 31 W/m² | - |
| 1787915927 | 19.44° C | 96% | 1019.6 hPa | 0 mm | - | 25 W/m² | - |
| 1787915623 | 18.89° C | 96% | 1019.2 hPa | 0 mm | - | 21 W/m² | - |
| 1787915322 | 18.89° C | 97% | 1019.3 hPa | 0 mm | - | 17 W/m² | - |
| 1787915017 | 18.89° C | 97% | 1019 hPa | 0 mm | - | 12 W/m² | - |
| 1787914716 | 18.89° C | 98% | 1019.3 hPa | 0 mm | - | 8 W/m² | - |
| 1787914411 | 18.89° C | 98% | 1018.8 hPa | 0 mm | - | 3 W/m² | - |
| 1787914106 | 18.89° C | 98% | 1019.2 hPa | 0 mm | - | 1 W/m² | - |
| 1787913804 | 18.89° C | 98% | 1018.5 hPa | 0 mm | - | 0 W/m² | - |
| 1787913500 | 18.89° C | 98% | 1018.5 hPa | 0 mm | - | 0 W/m² | - |
| 1787913200 | 18.89° C | 98% | 1018.6 hPa | 0 mm | - | 0 W/m² | - |
| 1787912899 | 18.89° C | 98% | 1018.4 hPa | 0 mm | - | 0 W/m² | - |
| 1787912598 | 18.89° C | 98% | 1018.4 hPa | 0 mm | - | 0 W/m² | - |
| 1787912298 | 18.89° C | 97% | 1018.5 hPa | 0 mm | - | 0 W/m² | - |
| 1787911998 | 18.89° C | 97% | 1018.3 hPa | 0 mm | - | 0 W/m² | - |
| 1787911693 | 18.89° C | 97% | 1018.3 hPa | 0 mm | - | 0 W/m² | - |
| 1787911392 | 18.89° C | 97% | 1018.4 hPa | 0 mm | - | 0 W/m² | - |
| 1787911089 | 18.89° C | 97% | 1018.2 hPa | 0 mm | - | 0 W/m² | - |
| 1787910783 | 18.89° C | 98% | 1018.5 hPa | 0 mm | - | 0 W/m² | - |
| 1787910479 | 18.89° C | 98% | 1018.4 hPa | 0 mm | - | 0 W/m² | - |
| 1787910174 | 18.89° C | 98% | 1018.4 hPa | 0 mm | - | 0 W/m² | - |
| 1787909872 | 18.89° C | 97% | 1018.3 hPa | 0 mm | - | 0 W/m² | - |
* Rain latest hour (hover to see other rain measurements)
** Current wind speed in m/s (hover to see current wind gust speed)